Location: Champignolles
(47.0543°N, 4.5663°E)
Time: 08:21:31
(UTC+00:00)

ISS - Pass Details

Date: 08 December 2021
Orbit: 413 x 422 km, 51.6° (Epoch: 27 January)

Event Time Altitude Azimuth Distance (km) Brightness Sun altitude
Rises 16:50:10 0° 292° (WNW) 2,388 0.8 -9.5°
Reaches altitude 10° 16:52:22 10° 284° (WNW) 1,517 -0.1 -9.8°
Maximum altitude 16:55:31 36° 216° (SW) 694 -2.0 -10.3°
Drops below altitude 10° 16:58:39 10° 149° (SSE) 1,503 -1.0 -10.8°
Enters shadow 17:02:46 -6° 137° (SE) 3,145 0.5 -11.5°
